STARLINK-34719

Last updated on Tue Aug 26 2025 00:02:05 GMT+0000 (Coordinated Universal Time)

1 64943U 25158M 25237.62074376 .00019628 00000+0 50393-3 0 9999 2 64943 97.6010 100.2073 0002045 80.8450 279.3026 15.39358129 5819
UTC large
Height (km)
Speed (km/s)
/
Latitude / Longitude
Inclination (degrees)
Orbital Period (minutes)
Azimuth
Elevation
Range (km)
Doppler Factor

Next 0 passes for location: London (51.5072 / 0.1276)

Sorry there are no passes over London.
STARLINK-34719